Time,TemperatureF,DewpointF,PressureIn,WindDirection,WindDirectionDegrees,WindSpeedMPH,WindSpeedGustMPH,Humidity,HourlyPrecipIn,Conditions,Clouds,dailyrainin,SoftwareType,DateUTC
2013-03-22 00:04:00,31.0,-99.9,0.00,East,85,10.0,11.0,-999,0.00,,,-99.99,,2013-03-22 05:04:00,
2013-03-22 00:09:00,31.0,-99.9,0.00,ENE,78,10.0,11.0,-999,0.00,,,-99.99,,2013-03-22 05:09:00,
2013-03-22 00:14:00,31.0,-99.9,0.00,East,90,9.0,10.0,-999,0.00,,,-99.99,,2013-03-22 05:14:00,
2013-03-22 00:19:00,31.0,-99.9,0.00,East,85,9.0,10.0,-999,0.00,,,-99.99,,2013-03-22 05:19:00,
2013-03-22 00:24:00,31.0,-99.9,0.00,East,90,9.0,10.0,-999,0.00,,,-99.99,,2013-03-22 05:24:00,
2013-03-22 00:29:00,31.0,-99.9,0.00,East,86,9.0,10.0,-999,0.00,,,-99.99,,2013-03-22 05:29:00,
2013-03-22 00:34:00,30.0,-99.9,0.00,East,99,8.0,9.0,-999,0.00,,,-99.99,,2013-03-22 05:34:00,
2013-03-22 00:39:00,30.0,-99.9,0.00,East,99,9.0,10.0,-999,0.00,,,-99.99,,2013-03-22 05:39:00,
2013-03-22 00:44:00,30.0,-99.9,0.00,ESE,111,8.0,9.0,-999,0.00,,,-99.99,,2013-03-22 05:44:00,
2013-03-22 00:49:00,30.0,-99.9,0.00,ESE,107,10.0,11.0,-999,0.00,,,-99.99,,2013-03-22 05:49:00,
2013-03-22 00:54:00,30.0,-99.9,0.00,East,97,12.0,13.0,-999,0.00,,,-99.99,,2013-03-22 05:54:00,
2013-03-22 00:59:00,30.0,-99.9,0.00,SE,130,12.0,14.0,-999,0.00,,,-99.99,,2013-03-22 05:59:00,
2013-03-22 01:04:00,30.0,-99.9,0.00,SE,127,11.0,12.0,-999,0.00,,,-99.99,,2013-03-22 06:04:00,
2013-03-22 01:09:00,30.0,-99.9,0.00,ESE,113,11.0,13.0,-999,0.00,,,-99.99,,2013-03-22 06:09:00,
2013-03-22 01:14:00,30.0,-99.9,0.00,SE,127,10.0,12.0,-999,0.00,,,-99.99,,2013-03-22 06:14:00,
2013-03-22 01:19:00,30.0,-99.9,0.00,ESE,120,10.0,12.0,-999,0.00,,,-99.99,,2013-03-22 06:19:00,
2013-03-22 01:24:00,30.0,-99.9,0.00,ESE,117,10.0,12.0,-999,0.00,,,-99.99,,2013-03-22 06:24:00,
2013-03-22 01:29:00,30.0,-99.9,0.00,ESE,123,10.0,12.0,-999,0.00,,,-99.99,,2013-03-22 06:29:00,
2013-03-22 01:34:00,30.0,-99.9,0.00,SE,131,10.0,12.0,-999,0.00,,,-99.99,,2013-03-22 06:34:00,
2013-03-22 01:39:00,30.0,-99.9,0.00,ESE,117,10.0,12.0,-999,0.00,,,-99.99,,2013-03-22 06:39:00,
2013-03-22 01:44:00,30.0,-99.9,0.00,SE,133,10.0,12.0,-999,0.00,,,-99.99,,2013-03-22 06:44:00,
2013-03-22 01:49:00,30.0,-99.9,0.00,SE,128,11.0,12.0,-999,0.00,,,-99.99,,2013-03-22 06:49:00,
2013-03-22 01:54:00,29.0,-99.9,0.00,ESE,123,10.0,12.0,-999,0.00,,,-99.99,,2013-03-22 06:54:00,
2013-03-22 01:59:00,29.0,-99.9,0.00,SE,135,10.0,12.0,-999,0.00,,,-99.99,,2013-03-22 06:59:00,
2013-03-22 02:04:00,29.0,-99.9,0.00,SE,131,11.0,13.0,-999,0.00,,,-99.99,,2013-03-22 07:04:00,
2013-03-22 02:09:00,29.0,-99.9,0.00,SE,131,10.0,11.0,-999,0.00,,,-99.99,,2013-03-22 07:09:00,
2013-03-22 02:14:00,29.0,-99.9,0.00,ESE,123,9.0,10.0,-999,0.00,,,-99.99,,2013-03-22 07:14:00,
2013-03-22 02:19:00,29.0,-99.9,0.00,SE,141,9.0,10.0,-999,0.00,,,-99.99,,2013-03-22 07:19:00,
2013-03-22 02:24:00,29.0,-99.9,0.00,SSE,148,9.0,11.0,-999,0.00,,,-99.99,,2013-03-22 07:24:00,
2013-03-22 02:29:00,29.0,-99.9,0.00,SSE,154,11.0,12.0,-999,0.00,,,-99.99,,2013-03-22 07:29:00,
2013-03-22 02:34:00,29.0,-99.9,0.00,SSE,165,9.0,11.0,-999,0.00,,,-99.99,,2013-03-22 07:34:00,
2013-03-22 02:39:00,29.0,-99.9,0.00,SSE,155,8.0,9.0,-999,0.00,,,-99.99,,2013-03-22 07:39:00,
2013-03-22 02:44:00,29.0,-99.9,0.00,South,180,7.0,8.0,-999,0.00,,,-99.99,,2013-03-22 07:44:00,
2013-03-22 02:49:00,29.0,-99.9,0.00,SSE,164,6.0,7.0,-999,0.00,,,-99.99,,2013-03-22 07:49:00,
2013-03-22 02:54:00,29.0,-99.9,0.00,SSE,161,6.0,7.0,-999,0.00,,,-99.99,,2013-03-22 07:54:00,
2013-03-22 02:59:00,29.0,-99.9,0.00,SSE,154,6.0,7.0,-999,0.00,,,-99.99,,2013-03-22 07:59:00,
2013-03-22 03:04:00,29.0,-99.9,0.00,SSE,158,6.0,7.0,-999,0.00,,,-99.99,,2013-03-22 08:04:00,
2013-03-22 03:09:00,29.0,-99.9,0.00,South,169,5.0,6.0,-999,0.00,,,-99.99,,2013-03-22 08:09:00,
2013-03-22 03:14:00,29.0,-99.9,0.00,South,176,5.0,6.0,-999,0.00,,,-99.99,,2013-03-22 08:14:00,
2013-03-22 03:19:00,28.0,-99.9,0.00,South,178,5.0,6.0,-999,0.00,,,-99.99,,2013-03-22 08:19:00,
2013-03-22 03:24:00,28.0,-99.9,0.00,South,173,6.0,7.0,-999,0.00,,,-99.99,,2013-03-22 08:24:00,
2013-03-22 03:29:00,27.0,-99.9,0.00,South,178,7.0,7.0,-999,0.00,,,-99.99,,2013-03-22 08:29:00,
2013-03-22 03:34:00,26.0,-99.9,0.00,South,178,6.0,6.0,-999,0.00,,,-99.99,,2013-03-22 08:34:00,
2013-03-22 03:39:00,26.0,-99.9,0.00,South,190,6.0,6.0,-999,0.00,,,-99.99,,2013-03-22 08:39:00,
2013-03-22 03:44:00,27.0,-99.9,0.00,South,183,6.0,6.0,-999,0.00,,,-99.99,,2013-03-22 08:44:00,
2013-03-22 03:49:00,27.0,-99.9,0.00,South,190,6.0,6.0,-999,0.00,,,-99.99,,2013-03-22 08:49:00,
2013-03-22 03:54:00,27.0,-99.9,0.00,North,0,0.0,0.0,-999,0.00,,,-99.99,,2013-03-22 08:54:00,
2013-03-22 03:59:00,28.0,-99.9,0.00,North,0,0.0,0.0,-999,0.00,,,-99.99,,2013-03-22 08:59:00,
2013-03-22 04:04:00,28.0,-99.9,0.00,North,0,0.0,0.0,-999,0.00,,,-99.99,,2013-03-22 09:04:00,
2013-03-22 04:09:00,27.0,-99.9,0.00,North,0,0.0,0.0,-999,0.00,,,-99.99,,2013-03-22 09:09:00,
2013-03-22 04:14:00,27.0,-99.9,0.00,North,0,0.0,0.0,-999,0.00,,,-99.99,,2013-03-22 09:14:00,
2013-03-22 04:19:00,27.0,-99.9,0.00,North,0,0.0,0.0,-999,0.00,,,-99.99,,2013-03-22 09:19:00,
2013-03-22 04:24:00,27.0,-99.9,0.00,North,0,0.0,0.0,-999,0.00,,,-99.99,,2013-03-22 09:24:00,
2013-03-22 04:29:00,26.0,-99.9,0.00,North,0,0.0,0.0,-999,0.00,,,-99.99,,2013-03-22 09:29:00,
2013-03-22 04:34:00,25.0,-99.9,0.00,North,0,0.0,0.0,-999,0.00,,,-99.99,,2013-03-22 09:34:00,
2013-03-22 04:39:00,26.0,-99.9,0.00,North,0,0.0,0.0,-999,0.00,,,-99.99,,2013-03-22 09:39:00,
2013-03-22 04:44:00,26.0,-99.9,0.00,North,0,0.0,0.0,-999,0.00,,,-99.99,,2013-03-22 09:44:00,
2013-03-22 04:49:00,25.0,-99.9,0.00,North,0,0.0,0.0,-999,0.00,,,-99.99,,2013-03-22 09:49:00,
2013-03-22 04:54:00,25.0,-99.9,0.00,North,0,0.0,0.0,-999,0.00,,,-99.99,,2013-03-22 09:54:00,
2013-03-22 04:59:00,25.0,-99.9,0.00,North,0,0.0,0.0,-999,0.00,,,-99.99,,2013-03-22 09:59:00,
2013-03-22 05:04:00,25.0,-99.9,0.00,North,0,0.0,0.0,-999,0.00,,,-99.99,,2013-03-22 10:04:00,
2013-03-22 05:09:00,24.0,-99.9,0.00,North,0,0.0,0.0,-999,0.00,,,-99.99,,2013-03-22 10:09:00,
2013-03-22 05:14:00,23.0,-99.9,0.00,North,0,0.0,0.0,-999,0.00,,,-99.99,,2013-03-22 10:14:00,
2013-03-22 05:19:00,22.0,-99.9,0.00,North,0,0.0,0.0,-999,0.00,,,-99.99,,2013-03-22 10:19:00,
2013-03-22 05:24:00,21.0,-99.9,0.00,South,172,5.0,6.0,-999,0.00,,,-99.99,,2013-03-22 10:24:00,
2013-03-22 05:29:00,21.0,-99.9,0.00,South,175,5.0,6.0,-999,0.00,,,-99.99,,2013-03-22 10:29:00,
2013-03-22 05:34:00,22.0,-99.9,0.00,South,169,5.0,6.0,-999,0.00,,,-99.99,,2013-03-22 10:34:00,
2013-03-22 05:39:00,22.0,-99.9,0.00,SSE,165,5.0,6.0,-999,0.00,,,-99.99,,2013-03-22 10:39:00,
2013-03-22 05:44:00,21.0,-99.9,0.00,South,175,6.0,6.0,-999,0.00,,,-99.99,,2013-03-22 10:44:00,
2013-03-22 05:49:00,21.0,-99.9,0.00,South,185,6.0,6.0,-999,0.00,,,-99.99,,2013-03-22 10:49:00,
2013-03-22 05:54:00,21.0,-99.9,0.00,South,180,5.0,6.0,-999,0.00,,,-99.99,,2013-03-22 10:54:00,
2013-03-22 05:59:00,21.0,-99.9,0.00,South,188,6.0,6.0,-999,0.00,,,-99.99,,2013-03-22 10:59:00,
2013-03-22 06:04:00,21.0,-99.9,0.00,South,186,6.0,7.0,-999,0.00,,,-99.99,,2013-03-22 11:04:00,
2013-03-22 06:09:00,22.0,-99.9,0.00,South,186,7.0,7.0,-999,0.00,,,-99.99,,2013-03-22 11:09:00,
2013-03-22 06:14:00,23.0,-99.9,0.00,SSW,199,6.0,7.0,-999,0.00,,,-99.99,,2013-03-22 11:14:00,
2013-03-22 06:19:00,25.0,-99.9,0.00,SSW,209,7.0,8.0,-999,0.00,,,-99.99,,2013-03-22 11:19:00,
2013-03-22 06:24:00,25.0,-99.9,0.00,SSW,206,7.0,8.0,-999,0.00,,,-99.99,,2013-03-22 11:24:00,
2013-03-22 06:29:00,25.0,-99.9,0.00,SSW,196,8.0,10.0,-999,0.00,,,-99.99,,2013-03-22 11:29:00,
2013-03-22 06:34:00,25.0,-99.9,0.00,SSW,209,8.0,9.0,-999,0.00,,,-99.99,,2013-03-22 11:34:00,
2013-03-22 06:39:00,24.0,-99.9,0.00,SSW,209,7.0,8.0,-999,0.00,,,-99.99,,2013-03-22 11:39:00,
2013-03-22 06:44:00,24.0,-99.9,0.00,SSW,209,6.0,7.0,-999,0.00,,,-99.99,,2013-03-22 11:44:00,
2013-03-22 06:49:00,23.0,-99.9,0.00,SSW,196,7.0,8.0,-999,0.00,,,-99.99,,2013-03-22 11:49:00,
2013-03-22 06:54:00,22.0,-99.9,0.00,SSW,196,7.0,8.0,-999,0.00,,,-99.99,,2013-03-22 11:54:00,
2013-03-22 06:59:00,22.0,-99.9,0.00,SW,214,7.0,8.0,-999,0.00,,,-99.99,,2013-03-22 11:59:00,
2013-03-22 07:04:00,22.0,-99.9,0.00,SW,220,7.0,8.0,-999,0.00,,,-99.99,,2013-03-22 12:04:00,
2013-03-22 07:09:00,23.0,-99.9,0.00,SW,231,7.0,9.0,-999,0.00,,,-99.99,,2013-03-22 12:09:00,
2013-03-22 07:14:00,23.0,-99.9,0.00,SW,227,7.0,8.0,-999,0.00,,,-99.99,,2013-03-22 12:14:00,
2013-03-22 07:19:00,24.0,-99.9,0.00,SW,226,7.0,9.0,-999,0.00,,,-99.99,,2013-03-22 12:19:00,
2013-03-22 07:24:00,24.0,-99.9,0.00,SW,226,6.0,8.0,-999,0.00,,,-99.99,,2013-03-22 12:24:00,
2013-03-22 07:29:00,25.0,-99.9,0.00,SW,235,7.0,9.0,-999,0.00,,,-99.99,,2013-03-22 12:29:00,
2013-03-22 07:34:00,25.0,-99.9,0.00,SW,235,8.0,9.0,-999,0.00,,,-99.99,,2013-03-22 12:34:00,
2013-03-22 07:39:00,25.0,-99.9,0.00,WSW,248,8.0,9.0,-999,0.00,,,-99.99,,2013-03-22 12:39:00,
2013-03-22 07:44:00,25.0,-99.9,0.00,West,261,8.0,9.0,-999,0.00,,,-99.99,,2013-03-22 12:44:00,
2013-03-22 07:49:00,25.0,-99.9,0.00,WSW,258,6.0,8.0,-999,0.00,,,-99.99,,2013-03-22 12:49:00,
2013-03-22 07:54:00,25.0,-99.9,0.00,SW,235,6.0,7.0,-999,0.00,,,-99.99,,2013-03-22 12:54:00,
2013-03-22 07:59:00,25.0,-99.9,0.00,WSW,243,6.0,7.0,-999,0.00,,,-99.99,,2013-03-22 12:59:00,
2013-03-22 08:04:00,25.0,-99.9,0.00,SW,227,7.0,8.0,-999,0.00,,,-99.99,,2013-03-22 13:04:00,
2013-03-22 08:09:00,25.0,-99.9,0.00,SW,223,7.0,8.0,-999,0.00,,,-99.99,,2013-03-22 13:09:00,
2013-03-22 08:14:00,25.0,-99.9,0.00,SW,219,6.0,7.0,-999,0.00,,,-99.99,,2013-03-22 13:14:00,
2013-03-22 08:19:00,25.0,-99.9,0.00,SW,224,6.0,8.0,-999,0.00,,,-99.99,,2013-03-22 13:19:00,
2013-03-22 08:24:00,26.0,-99.9,0.00,SSW,203,7.0,8.0,-999,0.00,,,-99.99,,2013-03-22 13:24:00,
2013-03-22 08:34:00,26.0,-99.9,0.00,SSW,213,7.0,8.0,-999,0.00,,,-99.99,,2013-03-22 13:34:00,
2013-03-22 08:39:00,26.0,-99.9,0.00,SW,221,8.0,9.0,-999,0.00,,,-99.99,,2013-03-22 13:39:00,
2013-03-22 08:44:00,27.0,-99.9,0.00,SW,216,7.0,9.0,-999,0.00,,,-99.99,,2013-03-22 13:44:00,
2013-03-22 08:49:00,27.0,-99.9,0.00,WSW,238,8.0,9.0,-999,0.00,,,-99.99,,2013-03-22 13:49:00,
2013-03-22 08:54:00,28.0,-99.9,0.00,WSW,243,7.0,8.0,-999,0.00,,,-99.99,,2013-03-22 13:54:00,
2013-03-22 08:59:00,28.0,-99.9,0.00,SW,231,9.0,10.0,-999,0.00,,,-99.99,,2013-03-22 13:59:00,
2013-03-22 09:04:00,28.0,-99.9,0.00,SW,223,9.0,10.0,-999,0.00,,,-99.99,,2013-03-22 14:04:00,
2013-03-22 09:09:00,28.0,-99.9,0.00,SW,227,8.0,9.0,-999,0.00,,,-99.99,,2013-03-22 14:09:00,
2013-03-22 09:14:00,29.0,-99.9,0.00,WSW,248,7.0,8.0,-999,0.00,,,-99.99,,2013-03-22 14:14:00,
2013-03-22 09:19:00,29.0,-99.9,0.00,West,264,8.0,9.0,-999,0.00,,,-99.99,,2013-03-22 14:19:00,
2013-03-22 09:24:00,29.0,-99.9,0.00,West,266,8.0,9.0,-999,0.00,,,-99.99,,2013-03-22 14:24:00,
2013-03-22 09:34:00,31.0,-99.9,0.00,WNW,289,8.0,9.0,-999,0.00,,,-99.99,,2013-03-22 14:34:00,